Find Tongxin Jishu Shiyan 6

NORAD ID: 47613 Int'l Des: 2021-010 Owner: CASC Country: CN operational
HEOCIRCULARGSO

实时位置

正在加载3D地球...

关于 Tongxin Jishu Shiyan 6

正在加载描述...

即将过境

Passes for default location (London). Set your location on the main map for personalized predictions.

高度历史

Loading altitude history...

两行轨道根数

1 47613U 21010A 26120.52226894 .00000045 00000-0 00000-0 0 9993
2 47613 0.4787 88.3066 0002874 317.8347 178.8796 1.00269401 19339
Epoch: Apr 30, 2026 • Age: 7 hours

当前状态

高度 35784.5 km
速度 3.07 km/s
星下点 -0.38°S, 178.5°E
发射日期 Feb 4, 2021
运行时间 5.2 years
类型 other

技术详情

分类 Payload
质量 4000.00 kg
干质量 2500.00 kg
总质量 4000.00 kg
长度 5.00 m
直径 2.50 m
跨度 30.00 m
形状 Box+ 2 panels
制造商 SISE
平台类型 FY-4
阶段状态 In Orbit
所有者/国家 CASC/CN

Most Searched